FW9881 Weather Reports


Display with metric or nautical units.
time (UTC)temp
F
wind
direction
speed
MPH
gust
MPH
rain 1hr
in
rain 24hr
in
rain mn
in
humidity
%
barometer
mb
20260505005838 61 202 5.0 12.0 0.00 0.00 0.00 43 1011.6
20260505004839 61 236 2.0 3.0 0.00 0.00 0.00 43 1011.2
20260505004740 61 230 1.0 2.0 0.00 0.00 0.00 43 1011.0
20260505003839 61 221 1.0 4.0 0.00 0.00 0.00 42 1011.0
20260505002838 61 194 2.0 3.0 0.00 0.00 0.00 42 1011.0
20260505002739 61 247 2.0 3.0 0.00 0.00 0.00 42 1011.0
20260505002641 61 236 3.0 7.0 0.00 0.00 0.00 42 1011.0
20260505001738 62 232 1.0 3.0 0.00 0.00 0.00 41 1010.8
20260505000739 63 247 1.0 3.0 0.00 0.00 0.00 39 1010.5
20260505000640 63 237 2.0 4.0 0.00 0.00 0.00 39 1010.5
20260504235640 64 240 2.0 4.0 0.00 0.00 0.00 39 1010.4
20260504232638 65 221 2.0 5.0 0.00 0.00 0.00 36 1009.9
20260504230837 66 229 5.0 8.0 0.00 0.00 0.00 35 1009.6
20260504230740 66 240 6.0 10.0 0.00 0.00 0.00 34 1009.5
20260504225840 67 247 3.0 5.0 0.00 0.00 0.00 33 1009.5
20260504224842 67 183 1.0 7.0 0.00 0.00 0.00 34 1009.3
20260504221938 68 249 4.0 8.0 0.00 0.00 0.00 32 1008.9
20260504220939 68 250 7.0 12.0 0.00 0.00 0.00 32 1008.8
20260504215940 69 260 9.0 13.0 0.00 0.00 0.00 33 1008.8
20260504214938 68 227 3.0 7.0 0.00 0.00 0.00 33 1008.8
20260504213939 69 223 4.0 6.0 0.00 0.00 0.00 33 1008.9
20260504213838 69 254 6.0 9.0 0.00 0.00 0.00 33 1008.9
20260504213741 69 247 5.0 10.0 0.00 0.00 0.00 33 1009.0
20260504212740 68 265 6.0 10.0 0.00 0.00 0.00 33 1009.0
20260504212640 68 286 5.0 8.0 0.00 0.00 0.00 33 1009.1
20260504212538 68 200 5.0 9.0 0.00 0.00 0.00 33 1009.0
20260504211540 68 246 9.0 18.0 0.00 0.00 0.00 33 1009.1
20260504210555 68 242 5.0 9.0 0.00 0.00 0.00 33 1009.1
20260504205639 68 237 4.0 9.0 0.00 0.00 0.00 33 1009.1
20260504204640 68 216 8.0 12.0 0.00 0.00 0.00 33 1009.2
20260504203739 67 233 5.0 13.0 0.00 0.00 0.00 34 1009.3
20260504203639 67 231 7.0 11.0 0.00 0.00 0.00 34 1009.2
20260504202637 67 240 8.0 12.0 0.00 0.00 0.00 34 1009.3
20260504201638 66 249 9.0 15.0 0.00 0.00 0.00 34 1009.3
20260504200641 67 283 8.0 16.0 0.00 0.00 0.00 34 1009.2
20260504195639 66 232 10.0 16.0 0.00 0.00 0.00 34 1009.3
20260504194640 66 237 11.0 17.0 0.00 0.00 0.00 33 1009.6
20260504192638 68 249 6.0 11.0 0.00 0.00 0.00 33 1009.3
20260504191639 67 269 6.0 10.0 0.00 0.00 0.00 32 1009.2
20260504190637 67 220 8.0 13.0 0.00 0.00 0.00 34 1009.4
20260504185639 66 235 5.0 12.0 0.00 0.00 0.00 33 1009.3
20260504184638 66 226 9.0 21.0 0.00 0.00 0.00 33 1009.5
20260504184537 66 231 8.0 17.0 0.00 0.00 0.00 34 1009.5
20260504183440 66 232 6.0 9.0 0.00 0.00 0.00 34 1009.5
20260504182440 65 252 9.0 16.0 0.00 0.00 0.00 35 1009.5
20260504181454 65 223 7.0 13.0 0.00 0.00 0.00 34 1009.8
20260504180537 66 223 7.0 10.0 0.00 0.00 0.00 34 1009.7
20260504180457 66 227 5.0 11.0 0.00 0.00 0.00 34 1009.8
20260504175439 66 223 6.0 14.0 0.00 0.00 0.00 35 1009.6
20260504174538 65 234 7.0 15.0 0.00 0.00 0.00 35 1009.8
20260504173540 64 252 6.0 12.0 0.00 0.00 0.00 35 1010.0
20260504172538 64 259 8.0 14.0 0.00 0.00 0.00 33 1009.9
20260504171538 64 246 8.0 15.0 0.00 0.00 0.00 34 1009.9
20260504150440 60 262 3.0 7.0 0.00 0.00 0.00 40 1011.1
20260504140338 57 245 5.0 9.0 0.00 0.00 0.00 44 1011.6
20260504130337 53 254 5.0 7.0 0.00 0.00 0.00 51 1012.4
20260504130239 53 273 3.0 4.0 0.00 0.00 0.00 52 1012.3
20260504110138 39 135 0.0 0.0 0.00 0.00 0.00 79 1012.8
20260504100338 39 202 0.0 1.0 0.00 0.01 0.00 79 1012.8
20260504081339 39 225 2.0 4.0 0.00 0.01 0.00 83 1012.6
20260504081239 39 214 2.0 4.0 0.00 0.01 0.00 83 1012.4
20260504080239 38 180 0.0 0.0 0.00 0.01 0.00 82 1012.5
20260504080138 38 180 0.0 0.0 0.00 0.01 0.00 82 1012.6
20260504070140 40 135 0.0 2.0 0.00 0.01 0.00 72 1012.3
20260504050137 34 157 0.0 0.0 0.00 0.01 0.00 86 1012.7
20260504045037 33 157 0.0 0.0 0.00 0.01 0.00 86 1012.7
20260504044038 32 157 0.0 0.0 0.00 0.01 0.00 85 1012.6
20260504043938 32 157 0.0 0.0 0.00 0.01 0.00 85 1012.7
20260504042940 32 157 0.0 0.0 0.00 0.01 0.00 85 1012.7
20260504041939 32 157 0.0 0.0 0.00 0.01 0.00 85 1012.7
20260504040939 32 22 0.0 0.0 0.00 0.01 0.00 83 1012.7
20260504040031 32 22 0.0 0.0 0.00 0.01 0.00 83 1012.6
20260504035024 33 22 0.0 0.0 0.00 0.01 0.01 82 1012.5
20260504034925 33 22 0.0 0.0 0.00 0.01 0.01 83 1012.5
20260504033925 33 22 0.0 0.0 0.00 0.01 0.01 83 1012.5
20260504033024 33 22 0.0 0.0 0.00 0.01 0.01 82 1012.4
20260504032026 33 22 0.0 0.0 0.00 0.01 0.01 81 1012.4
20260504030223 33 22 0.0 0.0 0.00 0.01 0.01 81 1012.3
20260504030126 33 22 0.0 0.0 0.00 0.01 0.01 80 1012.5
20260504025124 34 22 0.0 0.0 0.00 0.01 0.01 81 1012.3
20260504024127 34 22 0.0 0.0 0.00 0.01 0.01 80 1012.2
20260504023224 35 22 0.0 0.0 0.00 0.01 0.01 79 1012.4
20260504022241 35 22 0.0 0.0 0.00 0.01 0.01 78 1012.5
20260504022126 35 22 0.0 0.0 0.00 0.01 0.01 77 1012.4
20260504021023 34 22 0.0 0.0 0.00 0.01 0.01 77 1012.4
20260504020026 35 22 0.0 0.0 0.00 0.01 0.01 76 1012.3
20260504015024 35 22 0.0 0.0 0.00 0.01 0.01 75 1012.4
20260504012124 37 22 0.0 0.0 0.00 0.01 0.01 69 1012.1
20260504011124 38 22 0.0 0.0 0.00 0.01 0.01 67 1011.9
20260504011025 38 22 0.0 0.0 0.00 0.01 0.01 67 1012.0